Regional Weather Roundup
Issued by NWS

Home | Current Version | Previous Version | Graphics & Text | Print | Product List | Glossary On
Versions: 1 2 3 4 5 6 7 8 9 10 11 12 13 14 15 16 17 18 19 20 21 22 23 24 25 26 27 28 29 30 31 32 33 34 35 36 37 38 39 40 41 42 43 44 45 46 47 48 49 50
000
ASUS43 KFSD 281102
RWRSD

WEATHER ROUNDUP FOR SOUTH DAKOTA
NATIONAL WEATHER SERVICE SIOUX FALLS SD
500 AM CST FRI NOV 28 2014

NOTE: "FAIR" INDICATES FEW OR NO CLOUDS BELOW 12,000 FEET WITH NO
SIGNIFICANT WEATHER AND/OR OBSTRUCTIONS TO VISIBILITY.


SDZ001>005-009-010-012>017-281200-
NORTHWEST AND NORTH CENTRAL SOUTH DAKOTA

CITY           SKY/WX    TMP DP  RH WIND       PRES   REMARKS
BUFFALO          N/A     43  29  57 SW3       29.61F
FAITH            N/A     31  23  72 W5        29.70F WCI  26
MOBRIDGE       CLOUDY    14   9  80 E9        29.75F WCI   2
$$

SDZ012>016-024>037-041>051-057-063-072>074-281200-
SOUTHWEST AND SOUTH CENTRAL SOUTH DAKOTA

CITY           SKY/WX    TMP DP  RH WIND       PRES   REMARKS
RAPID CTY ARPT PTCLDY    31  24  75 CALM      29.70F
PIERRE         CLOUDY    19  15  84 E3        29.75F
CUSTER         CLEAR     43  24  47 W8        29.80F
ELLSWORTH AFB  PTCLDY    41  28  60 W6        29.69F
PHILIP         CLOUDY    29  25  85 CALM      29.71F
PINE RIDGE     PTCLDY    37  27  67 SW5       29.78F
WINNER         FAIR      42  29  59 SW10      29.77F
$$

SDZ004>011-016>023-039-040-281200-
NORTHEAST SOUTH DAKOTA

CITY           SKY/WX    TMP DP  RH WIND       PRES   REMARKS
ABERDEEN       PTCLDY    10   5  80 N5        29.88S WCI   2
WATERTOWN      CLEAR     13   9  84 SE9       29.84F WCI   1
SISSETON         N/A      4   1  88 SE6       29.94F WCI  -7
$$

SDZ017-020-022-023-036>040-048>070-281200-
SOUTHEAST SOUTH DAKOTA

CITY           SKY/WX    TMP DP  RH WIND       PRES   REMARKS
SIOUX FALLS    CLOUDY    19  15  84 E5        29.87F WCI  12
HURON          MOCLDY    19  15  84 SE6       29.83F WCI  11
MITCHELL       CLOUDY    22  17  81 SE8       29.84F WCI  12
YANKTON        PTCLDY    21  18  86 E8        29.86F WCI  12
$$

ABBREVIATIONS USED IN REMARKS
   TC - TEMPERATURE IN CELSIUS
  WCI - WIND CHILL INDEX
   HX - HEAT INDEX
  VSB - VISIBILITY




USA.gov is the U.S. government's official web portal to all federal, state and local government web resources and services.